Tracking 19800 objects as of 24-Jul-2019
HD Live streaming from Space Station
objects crossing your sky now

COSMOS 1275 DEB

Track COSMOS 1275 DEB now!
10-day predictions


NORAD ID: 12728
Int'l Code: 1981-053BV
Perigee: 944.2 km
Apogee: 1,030.5 km
Inclination: 82.8 °
Period: 104.7 minutes
Semi major axis: 7358 km
RCS: 0.1199 m2 (medium)
Launch date: June 4, 1981
Source: Commonwealth of Independent States (former USSR) (CIS)
Launch site: PLESETSK MISSILE AND SPACE COMPLEX (PKMTR)

Note: This is SATELLITE DEBRIS
aabbcc
Your satellite tracking list
Your tracking list is empty




NASA's NSSDC Master Catalog

Two Line Element Set (TLE):
1 12728U 81053BV  19204.70443466 +.00000173 +00000-0 +16246-3 0  9990
2 12728 082.8085 187.3032 0058637 034.4348 086.5108 13.75416625891558
Source of the keplerian elements: AFSPC